sat.trackr.live / text

‹ back to catalog

STARLINK-6225

NORAD 57092 · 2023-088AW

PAYLOAD ACTIVE UNKNOWN

§ Identity

Operator
Country
US
Launch date
2023-06-22
Launch site
AFWTR
Launch vehicle
Mass (kg)
RCS (m²)

Purposes: comms

External: N2YO · Heavens-Above · Gunter

§ Orbital elements

Epoch: 2026-05-25T01:30:00.355968Z

Period
94.27 min
Inclination
43.0069°
Eccentricity
0.0001670
Mean motion
15.27576633 rev/d
Perigee alt
481.9 km
Apogee alt
484.2 km
Semi-major
6,861.2 km
B*
8.9505e-5
RAAN
24.5488°
Arg perigee
278.8556°
Mean anomaly
81.2106°
Rev number
16,218

§ Raw data

STARLINK-62251 57092U 23088AW  26145.06250412  .00002201  00000+0  89505-4 0  99972 57092  43.0069  24.5488 0001670 278.8556  81.2106 15.27576633162184

JSON: /api/v1/satellites/57092 · /tle

For live sub-satellite position, see the globe view (requires WebGL).

§ Visibility from observer

Set your observer location to see the next 7 days of passes ≥ 10°. The values pass through the URL so the page stays shareable.

No JS? Fill the form by hand. The geolocation button needs JavaScript.